| time (UTC) | temp C | wind direction | speed KPH | gust KPH | rain 1hr cm | rain 24hr cm | rain mn cm | humidity % | barometer mb |
| 20260906032505 | 16 | 316 | 48.3 | 62.8 | 0.00 | 0.00 | 0.00 | 77 | 1011.3 |
| 20260906031006 | 15 | 325 | 46.7 | 66.0 | 0.00 | 0.00 | 0.00 | 81 | 1011.9 |
| 20260906030005 | 16 | 326 | 35.4 | 57.9 | 0.00 | 0.00 | 0.00 | 81 | 1012.3 |
| 20260906025507 | 16 | 323 | 38.6 | 61.2 | 0.00 | 0.00 | 0.00 | 82 | 1012.2 |
| 20260906024505 | 16 | 318 | 43.5 | 57.9 | 0.00 | 0.00 | 0.00 | 80 | 1012.4 |
| 20260906023005 | 16 | 319 | 40.2 | 56.3 | 0.00 | 0.00 | 0.00 | 79 | 1012.4 |
| 20260906022505 | 16 | 321 | 40.2 | 53.1 | 0.00 | 0.00 | 0.00 | 80 | 1012.3 |
| 20260906022007 | 16 | 327 | 33.8 | 57.9 | 0.00 | 0.00 | 0.00 | 79 | 1012.4 |
| 20260906021505 | 16 | 323 | 32.2 | 45.1 | 0.00 | 0.00 | 0.00 | 82 | 1012.5 |
| 20260906015505 | 16 | 318 | 43.5 | 57.9 | 0.00 | 0.00 | 0.00 | 78 | 1012.7 |
| 20260906015005 | 16 | 320 | 37.0 | 49.9 | 0.00 | 0.00 | 0.00 | 78 | 1012.8 |
| 20260906014007 | 16 | 319 | 41.8 | 56.3 | 0.00 | 0.00 | 0.00 | 76 | 1012.7 |
| 20260906012506 | 16 | 320 | 38.6 | 57.9 | 0.00 | 0.00 | 0.00 | 75 | 1013.0 |
| 20260906012005 | 16 | 322 | 35.4 | 48.3 | 0.00 | 0.00 | 0.00 | 75 | 1013.2 |
| 20260906011505 | 16 | 324 | 35.4 | 51.5 | 0.00 | 0.00 | 0.00 | 76 | 1013.2 |
| 20260906011005 | 16 | 310 | 32.2 | 49.9 | 0.00 | 0.00 | 0.00 | 75 | 1013.1 |
| 20260906010506 | 16 | 319 | 41.8 | 59.5 | 0.00 | 0.00 | 0.00 | 74 | 1013.4 |
| 20260906010005 | 16 | 317 | 38.6 | 53.1 | 0.00 | 0.00 | 0.00 | 74 | 1013.2 |
| 20260906005505 | 16 | 317 | 40.2 | 49.9 | 0.00 | 0.00 | 0.00 | 74 | 1013.4 |
| 20260906004507 | 16 | 320 | 40.2 | 53.1 | 0.00 | 0.00 | 0.00 | 77 | 1013.8 |
| 20260906004005 | 16 | 331 | 41.8 | 56.3 | 0.00 | 0.00 | 0.00 | 76 | 1013.9 |
| 20260906003006 | 16 | 316 | 45.1 | 59.5 | 0.00 | 0.00 | 0.00 | 75 | 1014.0 |
| 20260906001005 | 16 | 320 | 38.6 | 51.5 | 0.00 | 0.00 | 0.00 | 76 | 1014.4 |
| 20260906000006 | 16 | 315 | 38.6 | 56.3 | 0.00 | 0.00 | 0.00 | 76 | 1014.7 |
| 20260905235005 | 16 | 324 | 35.4 | 49.9 | 0.00 | 0.00 | 0.00 | 76 | 1014.8 |
| 20260905234504 | 16 | 322 | 24.1 | 38.6 | 0.00 | 0.00 | 0.00 | 77 | 1014.9 |
| 20260905233505 | 16 | 322 | 38.6 | 51.5 | 0.00 | 0.00 | 0.00 | 76 | 1015.0 |
| 20260905233007 | 16 | 321 | 33.8 | 49.9 | 0.00 | 0.00 | 0.00 | 75 | 1015.0 |
| 20260905232507 | 16 | 314 | 32.2 | 45.1 | 0.00 | 0.00 | 0.00 | 75 | 1015.2 |
| 20260905232005 | 16 | 327 | 33.8 | 41.8 | 0.00 | 0.00 | 0.00 | 76 | 1015.2 |
| 20260905231505 | 16 | 313 | 29.0 | 48.3 | 0.00 | 0.00 | 0.00 | 76 | 1015.3 |
| 20260905231005 | 16 | 321 | 40.2 | 51.5 | 0.00 | 0.00 | 0.00 | 76 | 1015.2 |
| 20260905230506 | 16 | 319 | 38.6 | 51.5 | 0.00 | 0.00 | 0.00 | 77 | 1015.3 |
| 20260905224506 | 15 | 331 | 29.0 | 45.1 | 0.00 | 0.00 | 0.00 | 79 | 1015.5 |
| 20260905223505 | 15 | 325 | 40.2 | 49.9 | 0.00 | 0.00 | 0.00 | 79 | 1015.6 |
| 20260905223007 | 15 | 316 | 33.8 | 45.1 | 0.00 | 0.00 | 0.00 | 81 | 1015.7 |
| 20260905222505 | 15 | 317 | 32.2 | 41.8 | 0.00 | 0.00 | 0.00 | 80 | 1015.8 |
| 20260905222006 | 15 | 320 | 32.2 | 41.8 | 0.00 | 0.00 | 0.00 | 81 | 1016.0 |
| 20260905221506 | 15 | 319 | 29.0 | 38.6 | 0.00 | 0.00 | 0.00 | 81 | 1016.0 |
| 20260905221005 | 15 | 329 | 27.4 | 38.6 | 0.00 | 0.00 | 0.00 | 81 | 1016.0 |
| 20260905215005 | 15 | 325 | 22.5 | 35.4 | 0.00 | 0.00 | 0.00 | 81 | 1016.2 |
| 20260905214507 | 15 | 326 | 25.7 | 40.2 | 0.00 | 0.00 | 0.00 | 81 | 1016.4 |
| 20260905213006 | 15 | 323 | 27.4 | 37.0 | 0.00 | 0.00 | 0.00 | 82 | 1016.6 |
| 20260905212505 | 15 | 313 | 25.7 | 45.1 | 0.00 | 0.00 | 0.00 | 81 | 1016.7 |
| 20260905211506 | 15 | 327 | 27.4 | 38.6 | 0.00 | 0.00 | 0.00 | 82 | 1016.6 |
| 20260905205504 | 15 | 320 | 22.5 | 35.4 | 0.00 | 0.00 | 0.00 | 84 | 1016.7 |
| 20260905204505 | 14 | 322 | 20.9 | 32.2 | 0.00 | 0.00 | 0.00 | 85 | 1016.5 |
| 20260905204006 | 14 | 328 | 19.3 | 32.2 | 0.00 | 0.00 | 0.00 | 86 | 1016.9 |
| 20260905203505 | 13 | 314 | 25.7 | 35.4 | 0.00 | 0.00 | 0.00 | 86 | 1016.5 |
| 20260905202506 | 13 | 315 | 25.7 | 33.8 | 0.00 | 0.00 | 0.00 | 87 | 1016.6 |
| 20260905195506 | 13 | 319 | 29.0 | 35.4 | 0.00 | 0.00 | 0.00 | 89 | 1016.4 |
| 20260905195005 | 13 | 324 | 25.7 | 32.2 | 0.00 | 0.00 | 0.00 | 89 | 1016.5 |
| 20260905193504 | 12 | 319 | 25.7 | 33.8 | 0.00 | 0.00 | 0.00 | 90 | 1016.3 |
| 20260905193005 | 12 | 317 | 20.9 | 25.7 | 0.00 | 0.00 | 0.00 | 90 | 1016.4 |
| 20260905191505 | 12 | 318 | 16.1 | 20.9 | 0.00 | 0.00 | 0.00 | 90 | 1016.6 |
| 20260905191005 | 12 | 324 | 14.5 | 20.9 | 0.00 | 0.00 | 0.00 | 90 | 1016.5 |
| 20260905185505 | 12 | 335 | 14.5 | 20.9 | 0.00 | 0.00 | 0.00 | 91 | 1016.5 |
| 20260905184504 | 12 | 328 | 14.5 | 20.9 | 0.00 | 0.00 | 0.00 | 91 | 1016.3 |
| 20260905183005 | 12 | 344 | 11.3 | 19.3 | 0.00 | 0.00 | 0.00 | 91 | 1016.1 |
| 20260905182504 | 12 | 338 | 9.7 | 14.5 | 0.00 | 0.00 | 0.00 | 90 | 1016.1 |
| 20260905182005 | 12 | 336 | 9.7 | 16.1 | 0.00 | 0.00 | 0.00 | 90 | 1016.0 |
| 20260905181005 | 12 | 314 | 12.9 | 20.9 | 0.00 | 0.00 | 0.00 | 90 | 1015.9 |
| 20260905175505 | 12 | 334 | 11.3 | 19.3 | 0.00 | 0.00 | 0.00 | 90 | 1016.0 |
| 20260905174504 | 12 | 336 | 11.3 | 20.9 | 0.00 | 0.00 | 0.00 | 90 | 1016.1 |
| 20260905173504 | 11 | 319 | 16.1 | 22.5 | 0.00 | 0.00 | 0.00 | 90 | 1016.2 |
| 20260905172505 | 11 | 320 | 16.1 | 24.1 | 0.00 | 0.00 | 0.00 | 90 | 1016.1 |
| 20260905171504 | 11 | 312 | 19.3 | 24.1 | 0.00 | 0.00 | 0.00 | 90 | 1016.2 |
| 20260905171006 | 11 | 317 | 20.9 | 25.7 | 0.00 | 0.00 | 0.00 | 90 | 1015.9 |
| 20260905170504 | 11 | 316 | 19.3 | 24.1 | 0.00 | 0.00 | 0.00 | 90 | 1016.0 |
| 20260905165506 | 11 | 318 | 19.3 | 24.1 | 0.00 | 0.00 | 0.00 | 90 | 1015.9 |
| 20260905164006 | 11 | 314 | 16.1 | 24.1 | 0.00 | 0.00 | 0.00 | 90 | 1015.7 |
| 20260905163007 | 11 | 314 | 14.5 | 20.9 | 0.00 | 0.00 | 0.00 | 89 | 1015.6 |
| 20260905162506 | 11 | 312 | 14.5 | 20.9 | 0.00 | 0.00 | 0.00 | 89 | 1015.7 |
| 20260905161508 | 11 | 315 | 16.1 | 24.1 | 0.00 | 0.00 | 0.00 | 89 | 1015.6 |
| 20260905155007 | 11 | 312 | 8.0 | 12.9 | 0.00 | 0.00 | 0.00 | 89 | 1015.8 |
| 20260905154506 | 11 | 317 | 11.3 | 16.1 | 0.00 | 0.00 | 0.00 | 89 | 1015.7 |
| 20260905154008 | 11 | 320 | 9.7 | 16.1 | 0.00 | 0.00 | 0.00 | 89 | 1015.7 |
| 20260905153506 | 11 | 314 | 12.9 | 16.1 | 0.00 | 0.00 | 0.00 | 89 | 1015.7 |
| 20260905153007 | 11 | 317 | 16.1 | 20.9 | 0.00 | 0.00 | 0.00 | 89 | 1015.8 |
| 20260905152507 | 11 | 317 | 12.9 | 20.9 | 0.00 | 0.00 | 0.00 | 89 | 1015.8 |
| 20260905152006 | 11 | 314 | 17.7 | 24.1 | 0.00 | 0.00 | 0.00 | 89 | 1015.8 |
| 20260905151506 | 12 | 320 | 16.1 | 22.5 | 0.00 | 0.00 | 0.00 | 89 | 1015.9 |
| 20260905150506 | 12 | 315 | 16.1 | 25.7 | 0.00 | 0.00 | 0.00 | 90 | 1016.1 |
| 20260905150006 | 12 | 314 | 16.1 | 24.1 | 0.00 | 0.00 | 0.00 | 90 | 1016.0 |
| 20260905145507 | 12 | 318 | 19.3 | 24.1 | 0.00 | 0.00 | 0.00 | 90 | 1016.1 |
| 20260905144506 | 12 | 318 | 19.3 | 24.1 | 0.00 | 0.00 | 0.00 | 90 | 1016.2 |
| 20260905142508 | 11 | 308 | 19.3 | 24.1 | 0.00 | 0.00 | 0.00 | 90 | 1016.4 |
| 20260905134506 | 11 | 306 | 9.7 | 20.9 | 0.00 | 0.00 | 0.00 | 90 | 1017.2 |
| 20260905133506 | 11 | 296 | 9.7 | 25.7 | 0.00 | 0.00 | 0.00 | 90 | 1017.0 |
| 20260905133007 | 11 | 294 | 14.5 | 27.4 | 0.00 | 0.00 | 0.00 | 90 | 1017.1 |
| 20260905132506 | 11 | 283 | 16.1 | 32.2 | 0.00 | 0.00 | 0.00 | 90 | 1017.1 |
| 20260905132006 | 11 | 298 | 11.3 | 29.0 | 0.00 | 0.00 | 0.00 | 90 | 1017.1 |
| 20260905131006 | 11 | 298 | 11.3 | 20.9 | 0.00 | 0.00 | 0.00 | 89 | 1017.1 |
| 20260905130506 | 11 | 297 | 9.7 | 19.3 | 0.00 | 0.00 | 0.00 | 88 | 1017.3 |
| 20260905125006 | 11 | 288 | 9.7 | 22.5 | 0.00 | 0.00 | 0.00 | 88 | 1017.5 |
| 20260905123507 | 12 | 305 | 9.7 | 20.9 | 0.00 | 0.00 | 0.00 | 87 | 1017.3 |
| 20260905122007 | 12 | 268 | 8.0 | 19.3 | 0.00 | 0.00 | 0.00 | 87 | 1017.6 |
| 20260905121006 | 12 | 291 | 12.9 | 24.1 | 0.00 | 0.00 | 0.00 | 86 | 1017.6 |
| 20260905120506 | 12 | 294 | 11.3 | 22.5 | 0.00 | 0.00 | 0.00 | 86 | 1017.7 |
| 20260905120007 | 12 | 273 | 8.0 | 20.9 | 0.00 | 0.00 | 0.00 | 85 | 1017.8 |
| 20260905115006 | 12 | 270 | 11.3 | 24.1 | 0.00 | 0.00 | 0.00 | 85 | 1017.8 |
| 20260905114506 | 12 | 255 | 16.1 | 29.0 | 0.00 | 0.00 | 0.00 | 85 | 1017.9 |
| 20260905113006 | 12 | 273 | 11.3 | 20.9 | 0.00 | 0.00 | 0.00 | 85 | 1018.2 |
| 20260905112506 | 12 | 260 | 14.5 | 24.1 | 0.00 | 0.00 | 0.00 | 84 | 1017.9 |
| 20260905112007 | 12 | 253 | 16.1 | 25.7 | 0.00 | 0.00 | 0.00 | 84 | 1018.0 |
| 20260905111505 | 12 | 263 | 11.3 | 29.0 | 0.00 | 0.00 | 0.00 | 84 | 1018.1 |
| 20260905110506 | 12 | 258 | 19.3 | 29.0 | 0.00 | 0.00 | 0.00 | 85 | 1018.1 |
| 20260905110007 | 12 | 254 | 19.3 | 33.8 | 0.00 | 0.00 | 0.00 | 85 | 1018.2 |
| 20260905105006 | 11 | 250 | 19.3 | 32.2 | 0.00 | 0.00 | 0.00 | 86 | 1018.2 |
| 20260905104507 | 11 | 260 | 19.3 | 29.0 | 0.00 | 0.00 | 0.00 | 86 | 1018.3 |
| 20260905103506 | 11 | 286 | 9.7 | 20.9 | 0.00 | 0.00 | 0.00 | 86 | 1018.4 |
| 20260905103006 | 11 | 262 | 11.3 | 19.3 | 0.00 | 0.00 | 0.00 | 85 | 1018.5 |
| 20260905102507 | 11 | 259 | 11.3 | 22.5 | 0.00 | 0.00 | 0.00 | 85 | 1018.3 |
| 20260905102005 | 11 | 268 | 9.7 | 20.9 | 0.00 | 0.00 | 0.00 | 85 | 1018.1 |
| 20260905101506 | 11 | 262 | 11.3 | 20.9 | 0.00 | 0.00 | 0.00 | 84 | 1018.1 |
| 20260905101007 | 11 | 280 | 8.0 | 16.1 | 0.00 | 0.00 | 0.00 | 84 | 1018.1 |
| 20260905100506 | 11 | 299 | 9.7 | 20.9 | 0.00 | 0.00 | 0.00 | 84 | 1018.0 |
| 20260905095006 | 11 | 297 | 11.3 | 22.5 | 0.00 | 0.00 | 0.00 | 82 | 1018.1 |
| 20260905093507 | 11 | 297 | 8.0 | 22.5 | 0.00 | 0.00 | 0.00 | 81 | 1018.1 |
| 20260905093006 | 12 | 272 | 9.7 | 20.9 | 0.00 | 0.00 | 0.00 | 81 | 1018.1 |
| 20260905092506 | 12 | 259 | 14.5 | 24.1 | 0.00 | 0.00 | 0.00 | 80 | 1017.9 |
| 20260905091505 | 12 | 252 | 19.3 | 32.2 | 0.00 | 0.00 | 0.00 | 80 | 1018.1 |
| 20260905090006 | 12 | 253 | 22.5 | 33.8 | 0.00 | 0.00 | 0.00 | 80 | 1018.1 |
| 20260905085007 | 12 | 250 | 19.3 | 35.4 | 0.00 | 0.00 | 0.00 | 80 | 1018.3 |
| 20260905084007 | 12 | 274 | 25.7 | 41.8 | 0.00 | 0.00 | 0.00 | 81 | 1018.1 |
| 20260905080008 | 11 | 295 | 16.1 | 29.0 | 0.00 | 0.00 | 0.00 | 85 | 1017.6 |
| 20260905074006 | 11 | 298 | 16.1 | 33.8 | 0.00 | 0.00 | 0.00 | 84 | 1017.4 |
| 20260905073506 | 11 | 302 | 11.3 | 20.9 | 0.00 | 0.00 | 0.00 | 83 | 1017.3 |
| 20260905071507 | 11 | 268 | 8.0 | 20.9 | 0.00 | 0.00 | 0.00 | 81 | 1017.4 |
| 20260905070006 | 11 | 278 | 6.4 | 20.9 | 0.00 | 0.00 | 0.00 | 81 | 1017.2 |
| 20260905065507 | 11 | 297 | 11.3 | 24.1 | 0.00 | 0.00 | 0.00 | 81 | 1017.1 |
| 20260905065006 | 11 | 288 | 11.3 | 22.5 | 0.00 | 0.00 | 0.00 | 81 | 1017.0 |
| 20260905064005 | 11 | 301 | 9.7 | 20.9 | 0.00 | 0.00 | 0.00 | 79 | 1017.0 |
| 20260905063507 | 11 | 312 | 11.3 | 22.5 | 0.00 | 0.00 | 0.00 | 79 | 1017.1 |
| 20260905063005 | 11 | 312 | 14.5 | 20.9 | 0.00 | 0.00 | 0.00 | 79 | 1017.0 |
| 20260905060507 | 12 | 262 | 12.9 | 20.9 | 0.00 | 0.00 | 0.00 | 78 | 1017.5 |
| 20260905060006 | 12 | 268 | 11.3 | 24.1 | 0.00 | 0.00 | 0.00 | 78 | 1017.4 |
| 20260905054006 | 13 | 278 | 14.5 | 29.0 | 0.00 | 0.00 | 0.00 | 76 | 1017.6 |
| 20260905053507 | 13 | 282 | 9.7 | 24.1 | 0.00 | 0.00 | 0.00 | 75 | 1017.4 |
| 20260905051005 | 14 | 274 | 11.3 | 27.4 | 0.00 | 0.00 | 0.00 | 74 | 1017.5 |
| 20260905050507 | 14 | 257 | 14.5 | 25.7 | 0.00 | 0.00 | 0.00 | 74 | 1017.4 |
| 20260905045506 | 14 | 253 | 20.9 | 27.4 | 0.00 | 0.00 | 0.00 | 74 | 1017.2 |
| 20260905045007 | 15 | 258 | 19.3 | 29.0 | 0.00 | 0.00 | 0.00 | 73 | 1017.2 |
| 20260905044505 | 15 | 265 | 14.5 | 29.0 | 0.00 | 0.03 | 0.00 | 72 | 1017.4 |
| 20260905044006 | 15 | 275 | 14.5 | 32.2 | 0.00 | 0.05 | 0.00 | 72 | 1017.5 |
| 20260905042505 | 15 | 274 | 16.1 | 33.8 | 0.00 | 0.05 | 0.00 | 71 | 1017.7 |
| 20260905041006 | 15 | 259 | 14.5 | 29.0 | 0.00 | 0.05 | 0.00 | 71 | 1017.6 |
| 20260905035505 | 16 | 268 | 16.1 | 35.4 | 0.00 | 0.05 | 0.00 | 69 | 1017.5 |
| 20260905035007 | 16 | 282 | 16.1 | 29.0 | 0.00 | 0.05 | 0.00 | 68 | 1017.6 |
| 20260905034006 | 16 | 262 | 16.1 | 32.2 | 0.00 | 0.08 | 0.00 | 68 | 1017.9 |